PST,Max TemperatureF,Mean TemperatureF,Min TemperatureF,Max Dew PointF,MeanDew PointF,Min DewpointF,Max Humidity, Mean Humidity, Min Humidity, Max Sea Level PressureIn, Mean Sea Level PressureIn, Min Sea Level PressureIn, Max VisibilityMiles, Mean VisibilityMiles, Min VisibilityMiles, Max Wind SpeedMPH, Mean Wind SpeedMPH, Max Gust SpeedMPH,PrecipitationIn, CloudCover, Events, WindDirDegrees
2013-1-1,39,34,28,34,29,25,93,82,70,30.51,30.45,30.37,10,9,3,12,4,,0.00,2,,31
2013-1-2,42,33,23,30,24,18,93,76,49,30.37,30.29,30.21,10,10,8,7,1,,0.00,0,,176
2013-1-3,41,30,19,32,24,16,93,79,56,30.22,30.16,30.13,10,8,2,12,1,,0.37,3,,198
2013-1-4,46,40,33,41,36,30,93,86,76,30.33,30.25,30.18,10,6,0,14,7,18,0.10,6,,190
2013-1-5,42,40,37,37,36,34,93,87,81,30.22,30.17,30.13,10,7,0,13,2,18,0.08,5,,208
2013-1-6,41,39,37,37,36,34,93,87,81,30.20,30.13,29.99,10,10,8,14,9,20,0.09,7,,180
2013-1-7,51,45,39,45,40,36,93,82,71,30.18,29.97,29.82,10,9,3,24,14,33,0.16,7,,192
2013-1-8,48,42,37,46,40,36,93,86,81,30.17,29.96,29.76,10,7,2,25,9,33,1.16,7,,198
2013-1-9,46,38,30,45,34,27,93,84,70,29.96,29.81,29.70,10,10,8,21,10,26,0.60,5,,194
2013-1-10,35,32,30,30,28,27,93,86,80,30.15,30.07,29.96,10,6,0,7,2,,0.00,8,,237
2013-1-11,37,30,24,27,20,18,86,65,45,30.34,30.27,30.13,10,10,10,15,6,21,0.00,1,,8
2013-1-12,35,27,19,27,21,14,86,76,56,30.45,30.39,30.33,10,10,10,9,1,,0.00,4,,8
2013-1-13,35,28,21,27,23,18,86,79,65,30.50,30.47,30.44,10,10,10,4,0,,0.00,6,,260
2013-1-14,37,28,19,28,22,16,93,81,65,30.58,30.53,30.48,10,8,0,8,1,,0.00,3,,206
2013-1-15,37,30,24,30,26,18,93,81,74,30.72,30.68,30.58,10,9,0,7,0,,0.00,5,,356
2013-1-16,41,30,19,32,24,16,100,81,65,30.69,30.62,30.53,10,9,0,8,1,,0.00,0,,35
2013-1-17,33,30,28,30,29,25,93,87,80,30.54,30.42,30.31,10,2,0,13,3,16,0.00,7,,270
2013-1-18,35,32,30,34,29,27,93,88,81,30.37,30.32,30.27,10,2,0,8,2,,0.00,8,,21
2013-1-19,37,35,33,34,31,28,93,86,81,30.41,30.37,30.34,9,3,0,8,4,,0.00,8,,22
2013-1-20,42,35,28,36,31,25,93,86,76,30.41,30.35,30.28,10,4,0,9,5,,0.00,6,,26
2013-1-21,35,34,32,32,30,28,93,86,81,30.29,30.22,30.15,5,1,0,7,1,,0.00,8,,23
2013-1-22,39,34,28,34,29,25,93,86,81,30.16,30.05,29.93,10,6,0,5,1,,0.00,5,,203
2013-1-23,42,38,35,37,34,30,93,87,76,30.14,29.95,29.87,10,8,4,14,4,,0.36,7,,193
2013-1-24,41,38,35,37,35,32,93,88,81,30.23,30.15,30.07,10,7,0,8,5,,0.28,7,,197
2013-1-25,48,39,30,43,37,27,93,83,71,30.08,30.02,29.95,10,8,2,13,8,,0.04,5,,196
2013-1-26,44,40,35,39,35,30,93,86,81,30.05,29.95,29.89,10,9,2,16,7,21,0.28,8,,196
2013-1-27,39,36,33,36,34,30,93,85,81,30.07,30.04,30.00,10,10,1,14,6,21,0.00,8,,194
2013-1-28,42,38,35,36,34,32,93,85,76,30.10,30.06,30.02,10,10,3,8,1,,0.00,8,,181
2013-1-29,46,42,39,39,38,36,93,84,76,30.35,30.27,30.11,10,10,8,15,2,20,0.06,6,,199
2013-1-30,48,45,42,43,41,37,93,85,81,30.40,30.37,30.32,10,10,0,10,4,,0.00,8,,202
2013-1-31,46,45,44,43,41,39,93,87,81,30.42,30.36,30.31,10,8,0,21,5,26,0.01,8,,191